Tracking 28052 objects as of 24-Sep-2023
HD Live streaming from Space Station
objects crossing your sky now

COSMOS 886 DEB

Track COSMOS 886 DEB now!
10-day predictions


NORAD ID: 9963
Int'l Code: 1976-126BD
Perigee: 543.4 km
Apogee: 1,767.8 km
Inclination: 65.8 °
Period: 108.3 minutes
Semi major axis: 7526 km
RCS: 0.135 m2 (medium)
Launch date: December 27, 1976
Source: Commonwealth of Independent States (former USSR) (CIS)
Launch site: TYURATAM MISSILE AND SPACE COMPLEX (TTMTR)

Note: This is SATELLITE DEBRIS
Your satellite tracking list
Your tracking list is empty




NASA's NSSDC Master Catalog

Two Line Element Set (TLE):
1 09963U 76126BD  23266.53177903  .00004214  00000-0  13740-2 0  9991
2 09963  65.7983 334.6776 0813355 169.1796 192.7995 13.29551357220879
Source of the keplerian elements: AFSPC